Regional Weather Roundup
Issued by NWS Goodland, KS

Current Version | Previous Version | Text Only | Print | Product List | Glossary On
Versions: 1 2 3 4 5 6 7 8 9 10 11 12 13 14 15 16 17 18 19 20 21 22 23 24 25 26 27 28 29 30 31 32 33 34 35 36 37 38 39 40 41 42 43 44 45 46 47 48 49 50
000
ASUS43 KGLD 281808
RWRGLD

GOODLAND FORECAST AREA HOURLY WEATHER ROUNDUP
NATIONAL WEATHER SERVICE GOODLAND KS
1100 AM MST SAT FEB 28 2015

...OFFICIAL OBSERVATIONS...

CITY           SKY/WX    TMP DP  RH WIND       PRES   REMARKS
GOODLAND KS    LGT SNOW  16  10  77 S10       30.12F WCI   4
HILL CITY KS   LGT SNOW  18  12  77 S10       30.29S WCI   6
IMPERIAL NEB     N/A     21   8  57 S7        30.14F
MCCOOK NEB     CLOUDY    24  10  55 S8G18     30.22F
AKRON CO       CLOUDY    16   9  74 SE5       30.00F
BURLINGTON CO  CLOUDY    16   9  74 S10       30.06S HAZE    WCI   4
LIMON CO       SUNNY     13   5  70 CALM      29.97S
$$

...UNOFFICIAL OBSERVATIONS...

CITY           SKY/WX    TMP DP  RH WIND       PRES   REMARKS
COLBY KS       LGT SNOW  19  16  86 SE9       30.18F
GOVE KS          N/A     17  32 100 MISG        N/A
LENORA KS        N/A     16  32 100 CALM        N/A
NORTON KS      CLOUDY    18  10  73 S9        30.26S
SHARON SPRINGS   N/A     18  13  80 S10         N/A  WCI   6
TRIBUNE KS     CLOUDY    19  16  86 SE12      30.14R WCI   7
KIT CARSON CO    N/A     17  12  79 MISG        N/A
YUMA CO          N/A     18   9  68 CALM        N/A
$$


USA.gov is the U.S. government's official web portal to all federal, state and local government web resources and services.